#timestamp,LO_Frequency,Hit,StdDev 
1456650015.8,286047003.0,N
1456650035.6,286047003.3,N
1456650055.5,286047005.4,N
1456650075.3,286047008.7,N
1456650095.1,286047010.8,N
1456650115.9,286047008.4,N
1456650135.7,286047008.5,N
1456650155.5,286047009.9,N
1456650175.4,286047007.7,N
1456650195.2,286047008.0,N
1456650215.0,286047006.1,N
1456650215.9,286047006.1,N
1456650235.8,286047007.0,N
1456650255.6,286047008.7,N
1456650275.4,286047004.7,N
1456650295.3,286047007.4,N
1456650315.1,286047004.1,N
1456650316.0,286047004.1,N
1456650335.8,286046998.1,N
1456650355.6,286047000.7,N
1456650375.5,286046998.5,N
1456650395.3,286046999.2,N
1456650415.1,286046999.6,N
1456650435.9,286046998.0,N
1456650455.7,286046995.6,N
1456650475.5,286046994.6,N
1456650495.4,286046995.4,N
1456650515.2,286046997.2,N
1456650535.0,286047000.8,N
1456650535.9,286047000.8,N
1456650555.8,286046996.8,N
1456650575.6,286046994.3,N
1456650595.4,286046993.6,N
1456650615.3,286046994.7,N
1456650635.1,286046991.9,N
1456650636.0,286046991.9,N
1456650655.8,286046994.2,N
1456650675.7,286046996.3,N
1456650695.5,286046994.3,N
1456650715.3,286046993.1,N
1456650735.1,286046990.4,N
1456650755.9,286046993.0,N
1456650775.7,286046997.2,N
1456650795.5,286046997.4,N
1456650815.4,286046993.3,N
1456650835.2,286046990.7,N
1456650855.0,286046990.8,N
1456650855.9,286046990.8,N
1456650875.8,286046990.3,Y
1456650895.6,286046994.2,P
1456650915.4,286046994.3,P
1456650935.3,286046991.1,P
1456650955.1,286046990.4,Y
1456650975.8,286046999.1,P
1456650995.7,286047000.5,N
1456651015.5,286046998.4,N
1456651035.3,286046998.8,N
1456651055.2,286046995.0,N
1456651075.9,286046993.6,N
1456651095.7,286046993.7,N
1456651115.6,286046994.1,N
1456651135.4,286046996.0,N
1456651155.2,286046993.8,N
1456651175.1,286046992.1,Y
1456651176.0,286046992.1,P
1456651195.8,286046997.7,N
1456651215.6,286046999.5,N
1456651235.5,286046995.4,N
1456651255.3,286046998.7,N
1456651275.1,286047001.1,N
1456651295.8,286046998.5,N
1456651315.7,286046999.4,N
1456651335.5,286047001.8,N
1456651355.3,286047003.3,N
1456651375.2,286047001.4,N
1456651395.9,286047005.9,N
1456651415.7,286047003.0,N
1456651435.6,286047002.9,N
1456651455.4,286047009.2,N
1456651475.2,286047009.6,N
1456651495.1,286047011.4,N
1456651496.0,286047011.4,N
1456651515.8,286047013.8,N
1456651535.6,286047017.1,N
1456651555.5,286047015.9,N
1456651575.3,286047019.1,N
1456651595.1,286047023.4,Y
1456651615.9,286047021.4,P
1456651635.7,286047022.7,N
1456651655.5,286047024.2,N
1456651675.4,286047024.0,Y
1456651695.2,286047008.5,P
1456651715.0,286047012.3,N
1456651715.9,286047012.3,P
1456651735.8,286047015.2,Y
1456651755.6,286046999.8,P
1456651775.4,286046995.2,N
1456651795.3,286046995.0,N
1456651815.1,286046997.4,N
1456651816.0,286046997.4,N
1456651835.8,286046995.8,N
1456651855.6,286046997.9,N
1456651875.5,286046993.3,N
1456651895.3,286046995.2,N
1456651915.1,286046999.2,N
1456651935.9,286047001.6,N
1456651955.7,286047002.4,N
1456651975.5,286046998.9,N
1456651995.4,286046995.8,N
1456652015.2,286046993.8,N
1456652035.0,286046992.0,N
1456652035.9,286046992.0,N
1456652055.8,286046993.0,N
1456652075.6,286046995.5,N
1456652095.4,286046993.4,N
1456652115.3,286046993.7,N
1456652135.1,286046992.1,N
1456652136.0,286046992.1,N
1456652155.8,286046990.2,N
1456652175.7,286046990.5,N
1456652195.5,286046991.4,N
1456652215.3,286046993.1,N
1456652235.1,286046992.7,N
1456652255.9,286046990.7,N
1456652275.7,286046993.2,N
1456652295.5,286046988.5,Y
1456652315.4,286046995.5,P
1456652335.2,286046993.5,P
1456652355.0,286046994.5,P
1456652356.0,286046994.5,Y
1456652375.8,286046999.5,P
1456652395.6,286047000.7,N
1456652415.4,286047000.7,N
1456652435.3,286047001.2,N
1456652455.1,286046998.2,N
1456652475.8,286047000.3,N
1456652495.7,286047000.6,N
1456652515.5,286047001.0,N
1456652535.3,286046997.7,N
1456652555.2,286046995.2,N
1456652575.9,286046999.3,N
1456652595.7,286046999.2,N
1456652615.6,286046994.9,N
1456652635.4,286046997.8,N
1456652655.2,286046998.7,N
1456652675.0,286046996.9,N
1456652675.9,286046996.9,N
1456652695.8,286046993.7,Y
1456652715.6,286046997.4,P
1456652735.5,286046996.3,P
1456652755.3,286046994.3,P
1456652775.1,286046992.8,Y
1456652795.9,286046995.2,P
1456652815.7,286046998.0,N
1456652835.5,286046997.2,N
1456652855.3,286046997.3,N
1456652875.2,286046999.3,N
1456652895.0,286046993.7,Y
1456652895.9,286046993.7,P
1456652915.8,286046997.0,N
1456652935.6,286047000.8,N
1456652955.4,286047000.9,N
1456652975.2,286047000.8,N
1456652995.1,286047000.5,N
1456652996.0,286047000.5,N
1456653015.8,286047000.0,N
1456653035.6,286047000.3,N
1456653055.5,286047000.9,N
1456653075.3,286046999.1,N
1456653095.1,286046998.1,N
1456653115.9,286047000.1,N
1456653135.7,286047002.3,N
1456653155.5,286047002.1,N
1456653175.4,286047000.6,N
1456653195.2,286047000.5,N
1456653215.0,286047000.4,N
1456653215.9,286047000.4,N
1456653235.8,286046998.4,N
1456653255.6,286047000.1,N
1456653275.4,286047001.7,N
1456653295.3,286047005.7,Y
1456653315.1,286047003.9,P
1456653316.0,286047003.9,N
1456653335.8,286047002.7,N
1456653355.7,286046998.7,N
1456653375.5,286047002.4,N
1456653395.3,286047001.7,N
1456653415.1,286047003.9,N
1456653435.9,286047005.2,N
1456653455.7,286047006.4,Y
1456653475.5,286047009.0,P
1456653495.4,286047009.5,N
1456653515.2,286047006.7,N
1456653535.0,286047005.7,N
1456653535.9,286047005.7,N
1456653555.8,286047006.7,N
1456653575.6,286047006.6,Y
1456653595.4,286046999.6,P
